Year,Month,Day,Hour,Minute,Value (Times are PST for temperature in C)
2005,04,28,00,00,17.90
2005,04,28,00,01,17.90
2005,04,28,00,02,17.90
2005,04,28,00,03,17.90
2005,04,28,00,04,17.90
2005,04,28,00,05,18.00
2005,04,28,00,06,18.00
2005,04,28,00,07,17.90
2005,04,28,00,08,17.90
2005,04,28,00,09,17.90
2005,04,28,00,10,17.90
2005,04,28,00,11,17.80
2005,04,28,00,12,17.80
2005,04,28,00,13,17.90
2005,04,28,00,14,17.90
2005,04,28,00,15,17.90
2005,04,28,00,17,17.90
2005,04,28,00,20,17.90
2005,04,28,00,23,17.80
2005,04,28,00,27,17.70
2005,04,28,00,28,17.60
2005,04,28,00,29,17.60
2005,04,28,00,31,17.40
2005,04,28,00,32,17.40
2005,04,28,00,33,17.40
2005,04,28,00,34,17.40
2005,04,28,00,35,17.40
2005,04,28,00,36,17.50
2005,04,28,00,37,17.50
2005,04,28,00,38,17.50
2005,04,28,00,39,17.60
2005,04,28,00,40,17.60
2005,04,28,00,41,17.50
2005,04,28,00,42,17.50
2005,04,28,00,43,17.40
2005,04,28,00,44,17.40
2005,04,28,00,45,17.30
2005,04,28,00,46,17.30
2005,04,28,00,47,17.30
2005,04,28,00,48,17.30
2005,04,28,00,49,17.30
2005,04,28,00,50,17.30
2005,04,28,00,51,17.30
2005,04,28,00,52,17.30
2005,04,28,00,53,17.30
2005,04,28,00,54,17.30
2005,04,28,00,55,17.20
2005,04,28,00,56,17.10
2005,04,28,00,57,17.10
2005,04,28,00,58,17.00
2005,04,28,00,59,17.00
2005,04,28,01,00,17.00
2005,04,28,01,01,17.00
2005,04,28,01,02,17.00
2005,04,28,01,03,16.90
2005,04,28,01,04,16.90
2005,04,28,01,05,16.90
2005,04,28,01,06,16.90
2005,04,28,01,07,16.90
2005,04,28,01,08,16.90
2005,04,28,01,09,16.80
2005,04,28,01,10,16.80
2005,04,28,01,11,16.70
2005,04,28,01,12,16.70
2005,04,28,01,13,16.70
2005,04,28,01,14,16.70
2005,04,28,01,15,16.60
2005,04,28,01,16,16.60
2005,04,28,01,17,16.60
2005,04,28,01,18,16.50
2005,04,28,01,19,16.40
2005,04,28,01,20,16.40
2005,04,28,01,21,16.40
2005,04,28,01,22,16.40
2005,04,28,01,23,16.30
2005,04,28,01,24,16.30
2005,04,28,01,25,16.20
2005,04,28,01,26,16.20
2005,04,28,01,27,16.20
2005,04,28,01,28,16.20
2005,04,28,01,29,16.20
2005,04,28,01,30,16.20
2005,04,28,01,31,16.10
2005,04,28,01,32,16.10
2005,04,28,01,33,16.10
2005,04,28,01,34,16.00
2005,04,28,01,35,15.90
2005,04,28,01,36,15.90
2005,04,28,01,37,15.80
2005,04,28,01,38,15.80
2005,04,28,01,39,15.80
2005,04,28,01,40,15.80
2005,04,28,01,41,15.80
2005,04,28,01,42,15.70
2005,04,28,01,43,15.70
2005,04,28,01,44,15.70
2005,04,28,01,45,15.60
2005,04,28,01,46,15.60
2005,04,28,01,47,15.50
2005,04,28,01,48,15.50
2005,04,28,01,49,15.50
2005,04,28,01,50,15.50
2005,04,28,01,51,15.50
2005,04,28,01,52,15.40
2005,04,28,01,53,15.40
2005,04,28,01,54,15.30
2005,04,28,01,55,15.30
2005,04,28,01,56,15.30
2005,04,28,01,57,15.30
2005,04,28,01,58,15.30
2005,04,28,01,59,15.30
2005,04,28,02,00,15.20
2005,04,28,02,01,15.20
2005,04,28,02,02,15.20
2005,04,28,02,03,15.10
2005,04,28,02,04,15.10
2005,04,28,02,05,15.10
2005,04,28,02,06,15.10
2005,04,28,02,07,15.00
2005,04,28,02,08,15.00
2005,04,28,02,09,14.90
2005,04,28,02,10,14.90
2005,04,28,02,11,14.90
2005,04,28,02,12,14.80
2005,04,28,02,13,14.80
2005,04,28,02,14,14.80
2005,04,28,02,15,14.80
2005,04,28,02,16,14.70
2005,04,28,02,17,14.70
2005,04,28,02,18,14.60
2005,04,28,02,19,14.60
2005,04,28,02,20,14.50
2005,04,28,02,21,14.50
2005,04,28,02,22,14.30
2005,04,28,02,23,14.20
2005,04,28,02,24,14.20
2005,04,28,02,25,14.10
2005,04,28,02,26,14.10
2005,04,28,02,27,14.10
2005,04,28,02,28,14.10
2005,04,28,02,29,14.10
2005,04,28,02,30,14.00
2005,04,28,02,31,14.00
2005,04,28,02,32,14.00
2005,04,28,02,33,14.00
2005,04,28,02,34,14.00
2005,04,28,02,35,14.00
2005,04,28,02,36,14.00
2005,04,28,02,37,13.90
2005,04,28,02,38,13.90
2005,04,28,02,39,13.90
2005,04,28,02,40,13.90
2005,04,28,02,41,13.90
2005,04,28,02,42,13.80
2005,04,28,02,43,13.80
2005,04,28,02,44,13.70
2005,04,28,02,45,13.70
2005,04,28,02,46,13.70
2005,04,28,02,47,13.70
2005,04,28,02,48,13.60
2005,04,28,02,49,13.60
2005,04,28,02,50,13.60
2005,04,28,02,51,13.60
2005,04,28,02,52,13.70
2005,04,28,02,53,13.70
2005,04,28,02,54,13.70
2005,04,28,02,55,13.70
2005,04,28,02,56,13.70
2005,04,28,02,57,13.60
2005,04,28,02,58,13.60
2005,04,28,02,59,13.60
2005,04,28,03,00,13.60
2005,04,28,03,01,13.60
2005,04,28,03,02,13.50
2005,04,28,03,03,13.50
2005,04,28,03,04,13.40
2005,04,28,03,05,13.30
2005,04,28,03,06,13.30
2005,04,28,03,07,13.20
2005,04,28,03,08,13.20
2005,04,28,03,09,13.00
2005,04,28,03,10,12.90
2005,04,28,03,11,12.90
2005,04,28,03,12,12.80
2005,04,28,03,13,12.80
2005,04,28,03,14,12.70
2005,04,28,03,15,12.60
2005,04,28,03,16,12.60
2005,04,28,03,17,12.60
2005,04,28,03,18,12.60
2005,04,28,03,19,12.50
2005,04,28,03,20,12.50
2005,04,28,03,21,12.40
2005,04,28,03,22,12.40
2005,04,28,03,23,12.30
2005,04,28,03,24,12.30
2005,04,28,03,25,12.30
2005,04,28,03,26,12.30
2005,04,28,03,27,12.30
2005,04,28,03,28,12.30
2005,04,28,03,29,12.30
2005,04,28,03,30,12.30
2005,04,28,03,31,12.30
2005,04,28,03,32,12.30
2005,04,28,03,33,12.30
2005,04,28,03,34,12.30
2005,04,28,03,35,12.30
2005,04,28,03,36,12.30
2005,04,28,03,37,12.30
2005,04,28,03,38,12.30
2005,04,28,03,39,12.30
2005,04,28,03,40,12.30
2005,04,28,03,41,12.30
2005,04,28,03,42,12.30
2005,04,28,03,43,12.30
2005,04,28,03,44,12.30
2005,04,28,03,45,12.30
2005,04,28,03,46,12.30
2005,04,28,03,47,12.30
2005,04,28,03,48,12.30
2005,04,28,03,49,12.30
2005,04,28,03,50,12.30
2005,04,28,03,51,12.30
2005,04,28,03,52,12.30
2005,04,28,03,53,12.30
2005,04,28,03,54,12.30
2005,04,28,03,55,12.30
2005,04,28,03,56,12.40
2005,04,28,03,57,12.40
2005,04,28,03,58,12.40
2005,04,28,03,59,12.50
2005,04,28,04,00,12.60
2005,04,28,04,01,12.60
2005,04,28,04,02,12.60
2005,04,28,04,03,12.50
2005,04,28,04,04,12.50
2005,04,28,04,05,12.50
2005,04,28,04,06,12.40
2005,04,28,04,07,12.40
2005,04,28,04,08,12.30
2005,04,28,04,09,12.30
2005,04,28,04,10,12.30
2005,04,28,04,11,12.30
2005,04,28,04,12,12.30
2005,04,28,04,13,12.30
2005,04,28,04,14,12.30
2005,04,28,04,15,12.30
2005,04,28,04,16,12.30
2005,04,28,04,17,12.30
2005,04,28,04,18,12.30
2005,04,28,04,19,12.20
2005,04,28,04,20,12.20
2005,04,28,04,21,12.20
2005,04,28,04,22,12.20
2005,04,28,04,23,12.20
2005,04,28,04,24,12.20
2005,04,28,04,25,12.10
2005,04,28,04,26,12.10
2005,04,28,04,27,12.10
2005,04,28,04,28,12.10
2005,04,28,04,29,12.10
2005,04,28,04,30,12.10
2005,04,28,04,31,12.10
2005,04,28,04,32,12.10
2005,04,28,04,33,12.10
2005,04,28,04,34,12.10
2005,04,28,04,35,12.10
2005,04,28,04,36,12.00
2005,04,28,04,37,12.00
2005,04,28,04,38,12.00
2005,04,28,04,39,11.90
2005,04,28,04,40,11.90
2005,04,28,04,41,11.90
2005,04,28,04,42,11.90
2005,04,28,04,43,11.90
2005,04,28,04,44,11.80
2005,04,28,04,45,11.80
2005,04,28,04,46,11.80
2005,04,28,04,47,11.80
2005,04,28,04,48,11.80
2005,04,28,04,49,11.80
2005,04,28,04,50,11.80
2005,04,28,04,51,11.80
2005,04,28,04,52,11.80
2005,04,28,04,53,11.80
2005,04,28,04,54,11.80
2005,04,28,04,55,11.80
2005,04,28,04,56,11.80
2005,04,28,04,57,11.80
2005,04,28,04,58,11.80
2005,04,28,04,59,11.80
2005,04,28,05,00,11.70
2005,04,28,05,01,11.60
2005,04,28,05,02,11.60
2005,04,28,05,03,11.60
2005,04,28,05,04,11.70
2005,04,28,05,05,11.70
2005,04,28,05,06,11.80
2005,04,28,05,07,11.80
2005,04,28,05,08,11.90
2005,04,28,05,09,11.90
2005,04,28,05,10,12.00
2005,04,28,05,11,12.00
2005,04,28,05,12,12.00
2005,04,28,05,13,12.00
2005,04,28,05,14,12.00
2005,04,28,05,15,12.00
2005,04,28,05,16,12.00
2005,04,28,05,17,12.10
2005,04,28,05,18,12.10
2005,04,28,05,19,12.10
2005,04,28,05,20,12.10
2005,04,28,05,21,12.10
2005,04,28,05,22,12.10
2005,04,28,05,23,12.10
2005,04,28,05,24,12.10
2005,04,28,05,25,12.10
2005,04,28,05,26,12.10
2005,04,28,05,27,12.10
2005,04,28,05,28,12.10
2005,04,28,05,29,12.10
2005,04,28,05,30,11.90
2005,04,28,05,31,11.90
2005,04,28,05,32,11.90
2005,04,28,05,33,11.90
2005,04,28,05,34,11.90
2005,04,28,05,35,12.00
2005,04,28,05,36,12.10
2005,04,28,05,37,12.10
2005,04,28,05,38,12.20
2005,04,28,05,39,12.20
2005,04,28,05,40,12.20
2005,04,28,05,41,12.30
2005,04,28,05,42,12.30
2005,04,28,05,43,12.30
2005,04,28,05,44,12.30
2005,04,28,05,45,12.30
2005,04,28,05,46,12.30
2005,04,28,05,47,12.30
2005,04,28,05,48,12.30
2005,04,28,05,49,12.30
2005,04,28,05,50,12.30
2005,04,28,05,51,12.20
2005,04,28,05,52,12.20
2005,04,28,05,53,12.00
2005,04,28,05,54,11.90
2005,04,28,05,55,11.80
2005,04,28,05,56,11.80
2005,04,28,05,57,11.60
2005,04,28,05,58,11.60
2005,04,28,05,59,11.60
2005,04,28,06,00,11.40
2005,04,28,06,01,11.40
2005,04,28,06,02,11.50
2005,04,28,06,03,11.60
2005,04,28,06,04,11.60
2005,04,28,06,05,11.70
2005,04,28,06,06,11.80
2005,04,28,06,07,11.80
2005,04,28,06,08,11.90
2005,04,28,06,09,11.90
2005,04,28,06,10,11.90
2005,04,28,06,11,11.90
2005,04,28,06,12,11.90
2005,04,28,06,13,11.80
2005,04,28,06,14,11.80
2005,04,28,06,15,11.80
2005,04,28,06,16,11.80
2005,04,28,06,17,11.90
2005,04,28,06,18,12.00
2005,04,28,06,19,12.10
2005,04,28,06,20,12.20
2005,04,28,06,21,12.20
2005,04,28,06,22,12.20
2005,04,28,06,23,12.30
2005,04,28,06,24,12.30
2005,04,28,06,25,12.30
2005,04,28,06,26,12.30
2005,04,28,06,27,12.30
2005,04,28,06,28,12.30
2005,04,28,06,29,12.30
2005,04,28,06,30,12.20
2005,04,28,06,31,12.20
2005,04,28,06,32,12.20
2005,04,28,06,33,12.20
2005,04,28,06,34,12.20
2005,04,28,06,35,12.30
2005,04,28,06,36,12.40
2005,04,28,06,37,12.50
2005,04,28,06,38,12.50
2005,04,28,06,39,12.50
2005,04,28,06,40,12.50
2005,04,28,06,41,12.50
2005,04,28,06,42,12.60
2005,04,28,06,43,12.70
2005,04,28,06,44,12.70
2005,04,28,06,45,12.70
2005,04,28,06,46,12.80
2005,04,28,06,47,12.80
2005,04,28,06,48,12.80
2005,04,28,06,49,12.80
2005,04,28,06,50,12.80
2005,04,28,06,51,12.80
2005,04,28,06,52,12.80
2005,04,28,06,53,12.80
2005,04,28,06,54,12.80
2005,04,28,06,55,12.80
2005,04,28,06,56,12.80
2005,04,28,06,57,12.90
2005,04,28,06,58,12.90
2005,04,28,06,59,12.90
2005,04,28,07,00,12.90
2005,04,28,07,01,12.90
2005,04,28,07,02,12.90
2005,04,28,07,03,13.00
2005,04,28,07,04,13.10
2005,04,28,07,05,13.10
2005,04,28,07,06,13.20
2005,04,28,07,07,13.20
2005,04,28,07,08,13.30
2005,04,28,07,09,13.30
2005,04,28,07,10,13.30
2005,04,28,07,11,13.30
2005,04,28,07,12,13.30
2005,04,28,07,13,13.30
2005,04,28,07,14,13.30
2005,04,28,07,15,13.30
2005,04,28,07,16,13.30
2005,04,28,07,21,13.30
2005,04,28,07,22,13.30
2005,04,28,07,23,13.30
2005,04,28,07,24,13.30
2005,04,28,07,25,13.30
2005,04,28,07,26,13.30
2005,04,28,07,27,13.30
2005,04,28,07,28,13.30
2005,04,28,07,29,13.30
2005,04,28,07,30,13.30
2005,04,28,07,31,13.30
2005,04,28,07,32,13.30
2005,04,28,07,33,13.30
2005,04,28,07,34,13.30
2005,04,28,07,35,13.30
2005,04,28,07,36,13.30
2005,04,28,07,37,13.20
2005,04,28,07,38,13.20
2005,04,28,07,39,13.20
2005,04,28,07,40,13.20
2005,04,28,07,41,13.10
2005,04,28,07,42,13.10
2005,04,28,07,43,13.10
2005,04,28,07,44,13.10
2005,04,28,07,45,13.10
2005,04,28,07,46,13.10
2005,04,28,07,47,13.20
2005,04,28,07,48,13.20
2005,04,28,07,49,13.20
2005,04,28,07,50,13.20
2005,04,28,07,51,13.30
2005,04,28,07,52,13.30
2005,04,28,07,53,13.40
2005,04,28,07,54,13.40
2005,04,28,07,55,13.50
2005,04,28,07,56,13.50
2005,04,28,07,57,13.50
2005,04,28,07,58,13.50
2005,04,28,07,59,13.50
2005,04,28,08,00,13.50
2005,04,28,08,01,13.50
2005,04,28,08,02,13.60
2005,04,28,08,03,13.60
2005,04,28,08,04,13.60
2005,04,28,08,05,13.60
2005,04,28,08,06,13.60
2005,04,28,08,07,13.60
2005,04,28,08,08,13.60
2005,04,28,08,09,13.70
2005,04,28,08,10,13.70
2005,04,28,08,11,13.70
2005,04,28,08,12,13.70
2005,04,28,08,13,13.80
2005,04,28,08,14,13.80
2005,04,28,08,15,13.80
2005,04,28,08,16,13.90
2005,04,28,08,17,13.90
2005,04,28,08,18,13.90
2005,04,28,08,19,14.10
2005,04,28,08,20,14.20
2005,04,28,08,21,14.20
2005,04,28,08,22,14.20
2005,04,28,08,23,14.20
2005,04,28,08,24,14.10
2005,04,28,08,25,14.20
2005,04,28,08,26,14.20
2005,04,28,08,27,14.20
2005,04,28,08,28,14.20
2005,04,28,08,29,14.40
2005,04,28,08,30,14.50
2005,04,28,08,31,14.60
2005,04,28,08,32,14.70
2005,04,28,08,33,14.80
2005,04,28,08,34,14.80
2005,04,28,08,35,14.90
2005,04,28,08,36,14.90
2005,04,28,08,37,14.90
2005,04,28,08,38,14.80
2005,04,28,08,39,14.90
2005,04,28,08,40,15.00
2005,04,28,08,41,15.20
2005,04,28,08,42,15.20
2005,04,28,08,43,15.10
2005,04,28,08,44,15.20
2005,04,28,08,45,15.20
2005,04,28,08,46,15.20
2005,04,28,08,47,15.10
2005,04,28,08,48,15.10
2005,04,28,08,49,15.20
2005,04,28,08,50,15.20
2005,04,28,08,51,15.20
2005,04,28,08,52,15.10
2005,04,28,08,53,15.10
2005,04,28,08,54,15.00
2005,04,28,08,55,15.00
2005,04,28,08,56,14.90
2005,04,28,08,57,14.80
2005,04,28,08,58,14.80
2005,04,28,08,59,14.70
2005,04,28,09,00,14.70
2005,04,28,09,01,14.70
2005,04,28,09,02,14.70
2005,04,28,09,03,14.70
2005,04,28,09,04,14.60
2005,04,28,09,05,14.70
2005,04,28,09,06,14.80
2005,04,28,09,07,14.80
2005,04,28,09,08,14.80
2005,04,28,09,09,14.80
2005,04,28,09,10,14.80
2005,04,28,09,11,14.80
2005,04,28,09,12,14.90
2005,04,28,09,13,14.90
2005,04,28,09,14,14.90
2005,04,28,09,15,14.80
2005,04,28,09,16,14.60
2005,04,28,09,17,14.50
2005,04,28,09,18,14.40
2005,04,28,09,19,14.40
2005,04,28,09,20,14.40
2005,04,28,09,21,14.40
2005,04,28,09,22,14.30
2005,04,28,09,23,14.30
2005,04,28,09,24,14.40
2005,04,28,09,25,14.30
2005,04,28,09,26,14.30
2005,04,28,09,27,14.30
2005,04,28,09,28,14.20
2005,04,28,09,29,14.20
2005,04,28,09,30,14.20
2005,04,28,09,31,14.30
2005,04,28,09,32,14.30
2005,04,28,09,33,14.30
2005,04,28,09,34,14.20
2005,04,28,09,35,14.20
2005,04,28,09,36,14.20
2005,04,28,09,37,14.10
2005,04,28,09,38,14.20
2005,04,28,09,39,14.20
2005,04,28,09,40,14.20
2005,04,28,09,41,14.20
2005,04,28,09,42,14.20
2005,04,28,09,43,14.20
2005,04,28,09,44,14.30
2005,04,28,09,45,14.40
2005,04,28,09,46,14.50
2005,04,28,09,47,14.50
2005,04,28,09,48,14.60
2005,04,28,09,49,14.60
2005,04,28,09,50,14.70
2005,04,28,09,51,14.80
2005,04,28,09,52,14.90
2005,04,28,09,53,14.90
2005,04,28,09,54,15.10
2005,04,28,09,55,15.10
2005,04,28,09,56,15.20
2005,04,28,09,57,15.30
2005,04,28,09,58,15.50
2005,04,28,09,59,15.70
2005,04,28,10,00,15.60
2005,04,28,10,01,15.40
2005,04,28,10,02,15.30
2005,04,28,10,03,15.30
2005,04,28,10,04,15.40
2005,04,28,10,05,15.30
2005,04,28,10,06,15.20
2005,04,28,10,07,15.10
2005,04,28,10,08,14.90
2005,04,28,10,09,14.80
2005,04,28,10,10,14.90
2005,04,28,10,11,14.90
2005,04,28,10,12,14.90
2005,04,28,10,13,15.00
2005,04,28,10,14,14.90
2005,04,28,10,15,14.90
2005,04,28,10,16,14.80
2005,04,28,10,17,14.80
2005,04,28,10,18,14.80
2005,04,28,10,19,14.80
2005,04,28,10,20,14.80
2005,04,28,10,21,14.80
2005,04,28,10,22,14.80
2005,04,28,10,23,14.80
2005,04,28,10,24,14.80
2005,04,28,10,25,14.80
2005,04,28,10,26,14.80
2005,04,28,10,27,14.70
2005,04,28,10,28,14.80
2005,04,28,10,29,14.80
2005,04,28,10,30,14.80
2005,04,28,10,31,14.80
2005,04,28,10,32,14.80
2005,04,28,10,33,14.80
2005,04,28,10,34,14.80
2005,04,28,10,35,14.80
2005,04,28,10,36,14.80
2005,04,28,10,37,14.80
2005,04,28,10,38,14.80
2005,04,28,10,39,14.80
2005,04,28,10,40,14.80
2005,04,28,10,41,14.90
2005,04,28,10,42,15.00
2005,04,28,10,43,15.10
2005,04,28,10,44,15.10
2005,04,28,10,45,15.10
2005,04,28,10,46,15.20
2005,04,28,10,47,15.10
2005,04,28,10,48,15.00
2005,04,28,10,49,14.90
2005,04,28,10,50,14.80
2005,04,28,10,51,14.80
2005,04,28,10,52,14.80
2005,04,28,10,53,14.90
2005,04,28,10,54,14.90
2005,04,28,10,55,14.80
2005,04,28,10,56,14.80
2005,04,28,10,57,14.90
2005,04,28,10,58,14.90
2005,04,28,10,59,14.80
2005,04,28,11,00,14.80
2005,04,28,11,01,14.90
2005,04,28,11,02,15.00
2005,04,28,11,03,15.00
2005,04,28,11,04,15.00
2005,04,28,11,05,15.00
2005,04,28,11,06,15.00
2005,04,28,11,07,15.10
2005,04,28,11,08,15.10
2005,04,28,11,09,15.10
2005,04,28,11,10,15.10
2005,04,28,11,11,15.00
2005,04,28,11,12,15.00
2005,04,28,11,13,15.20
2005,04,28,11,14,15.20
2005,04,28,11,15,15.30
2005,04,28,11,16,15.20
2005,04,28,11,17,15.20
2005,04,28,11,18,15.20
2005,04,28,11,19,15.20
2005,04,28,11,20,15.10
2005,04,28,11,21,15.10
2005,04,28,11,22,15.10
2005,04,28,11,23,15.00
2005,04,28,11,24,15.00
2005,04,28,11,25,15.00
2005,04,28,11,26,15.10
2005,04,28,11,27,15.30
2005,04,28,11,28,15.20
2005,04,28,11,29,15.10
2005,04,28,11,30,15.00
2005,04,28,11,31,15.00
2005,04,28,11,32,15.10
2005,04,28,11,33,15.30
2005,04,28,11,34,15.30
2005,04,28,11,35,15.40
2005,04,28,11,36,15.50
2005,04,28,11,37,15.60
2005,04,28,11,38,15.60
2005,04,28,11,39,15.60
2005,04,28,11,40,15.60
2005,04,28,11,41,15.60
2005,04,28,11,42,15.80
2005,04,28,11,43,15.90
2005,04,28,11,44,16.10
2005,04,28,11,45,16.10
2005,04,28,11,46,16.10
2005,04,28,11,47,16.10
2005,04,28,11,48,16.10
2005,04,28,11,49,16.10
2005,04,28,11,50,16.10
2005,04,28,11,51,16.10
2005,04,28,11,52,16.10
2005,04,28,11,53,16.20
2005,04,28,11,54,16.20
2005,04,28,11,55,16.30
2005,04,28,11,56,16.40
2005,04,28,11,57,16.40
2005,04,28,11,58,16.40
2005,04,28,11,59,16.30
2005,04,28,12,00,16.30
2005,04,28,12,01,16.30
2005,04,28,12,02,16.40
2005,04,28,12,03,16.30
2005,04,28,12,04,16.20
2005,04,28,12,05,16.20
2005,04,28,12,06,16.20
2005,04,28,12,07,16.10
2005,04,28,12,08,16.10
2005,04,28,12,09,16.10
2005,04,28,12,10,16.00
2005,04,28,12,11,15.90
2005,04,28,12,12,16.00
2005,04,28,12,13,16.20
2005,04,28,12,14,16.30
2005,04,28,12,15,16.30
2005,04,28,12,16,16.40
2005,04,28,12,17,16.40
2005,04,28,12,18,16.40
2005,04,28,12,19,16.40
2005,04,28,12,20,16.70
2005,04,28,12,21,16.70
2005,04,28,12,22,16.60
2005,04,28,12,23,16.60
2005,04,28,12,24,16.60
2005,04,28,12,25,16.40
2005,04,28,12,26,16.40
2005,04,28,12,27,16.60
2005,04,28,12,28,16.70
2005,04,28,12,29,16.90
2005,04,28,12,30,17.00
2005,04,28,12,31,17.00
2005,04,28,12,32,16.90
2005,04,28,12,33,16.90
2005,04,28,12,34,16.80
2005,04,28,12,35,16.80
2005,04,28,12,36,16.90
2005,04,28,12,37,17.20
2005,04,28,12,38,17.30
2005,04,28,12,39,17.40
2005,04,28,12,40,17.40
2005,04,28,12,41,17.50
2005,04,28,12,42,17.60
2005,04,28,12,43,17.60
2005,04,28,12,44,17.70
2005,04,28,12,45,17.80
2005,04,28,12,46,17.90
2005,04,28,12,47,17.90
2005,04,28,12,48,18.20
2005,04,28,12,49,18.30
2005,04,28,12,50,18.30
2005,04,28,12,51,18.40
2005,04,28,12,52,18.20
2005,04,28,12,53,18.20
2005,04,28,12,54,18.20
2005,04,28,12,55,18.20
2005,04,28,12,56,18.20
2005,04,28,12,57,18.20
2005,04,28,12,58,18.20
2005,04,28,12,59,18.40
2005,04,28,13,00,18.50
2005,04,28,13,01,18.60
2005,04,28,13,02,18.60
2005,04,28,13,03,18.60
2005,04,28,13,04,18.70
2005,04,28,13,05,18.60
2005,04,28,13,06,18.70
2005,04,28,13,07,18.70
2005,04,28,13,08,18.80
2005,04,28,13,09,18.70
2005,04,28,13,10,18.50
2005,04,28,13,11,18.40
2005,04,28,13,12,18.50
2005,04,28,13,13,18.70
2005,04,28,13,14,18.80
2005,04,28,13,15,18.90
2005,04,28,13,16,19.10
2005,04,28,13,17,18.90
2005,04,28,13,18,19.10
2005,04,28,13,19,19.00
2005,04,28,13,20,18.90
2005,04,28,13,21,18.90
2005,04,28,13,22,18.80
2005,04,28,13,23,18.70
2005,04,28,13,24,18.70
2005,04,28,13,25,18.60
2005,04,28,13,26,18.60
2005,04,28,13,27,18.80
2005,04,28,13,28,19.00
2005,04,28,13,29,19.10
2005,04,28,13,30,19.10
2005,04,28,13,31,19.20
2005,04,28,13,32,19.30
2005,04,28,13,33,19.40
2005,04,28,13,34,19.50
2005,04,28,13,35,19.50
2005,04,28,13,36,19.60
2005,04,28,13,37,19.70
2005,04,28,13,38,19.70
2005,04,28,13,39,19.80
2005,04,28,13,40,19.80
2005,04,28,13,41,19.80
2005,04,28,13,42,19.80
2005,04,28,13,43,19.80
2005,04,28,13,44,19.80
2005,04,28,13,45,19.90
2005,04,28,13,46,19.80
2005,04,28,13,47,19.80
2005,04,28,13,48,19.80
2005,04,28,13,49,19.80
2005,04,28,13,50,19.80
2005,04,28,13,51,19.80
2005,04,28,13,52,19.90
2005,04,28,13,53,19.90
2005,04,28,13,54,19.90
2005,04,28,13,55,19.90
2005,04,28,13,56,19.90
2005,04,28,13,57,19.80
2005,04,28,13,58,19.70
2005,04,28,13,59,19.70
2005,04,28,14,00,19.70
2005,04,28,14,01,19.80
2005,04,28,14,02,19.90
2005,04,28,14,03,20.10
2005,04,28,14,04,20.20
2005,04,28,14,05,20.40
2005,04,28,14,06,20.40
2005,04,28,14,07,20.30
2005,04,28,14,08,20.40
2005,04,28,14,09,20.40
2005,04,28,14,10,20.30
2005,04,28,14,11,20.30
2005,04,28,14,12,20.20
2005,04,28,14,13,20.30
2005,04,28,14,14,20.20
2005,04,28,14,15,20.20
2005,04,28,14,16,20.10
2005,04,28,14,17,19.90
2005,04,28,14,18,19.70
2005,04,28,14,19,19.60
2005,04,28,14,20,19.60
2005,04,28,14,21,19.50
2005,04,28,14,22,19.40
2005,04,28,14,23,19.40
2005,04,28,14,24,19.40
2005,04,28,14,25,19.40
2005,04,28,14,26,19.30
2005,04,28,14,27,19.10
2005,04,28,14,28,19.10
2005,04,28,14,29,19.10
2005,04,28,14,30,19.10
2005,04,28,14,31,19.10
2005,04,28,14,32,19.10
2005,04,28,14,33,19.00
2005,04,28,14,34,18.90
2005,04,28,14,35,18.90
2005,04,28,14,36,18.90
2005,04,28,14,37,19.10
2005,04,28,14,38,19.10
2005,04,28,14,39,19.20
2005,04,28,14,40,19.40
2005,04,28,14,41,19.40
2005,04,28,14,42,19.50
2005,04,28,14,43,19.60
2005,04,28,14,44,19.70
2005,04,28,14,45,19.90
2005,04,28,14,46,19.80
2005,04,28,14,47,19.80
2005,04,28,14,48,19.80
2005,04,28,14,49,19.80
2005,04,28,14,50,19.70
2005,04,28,14,51,19.70
2005,04,28,14,52,19.70
2005,04,28,14,53,19.80
2005,04,28,14,54,19.80
2005,04,28,14,55,19.90
2005,04,28,14,56,19.90
2005,04,28,14,57,19.90
2005,04,28,14,58,19.90
2005,04,28,14,59,19.90
2005,04,28,15,00,20.10
2005,04,28,15,01,19.90
2005,04,28,15,02,19.90
2005,04,28,15,03,19.80
2005,04,28,15,04,19.80
2005,04,28,15,05,19.90
2005,04,28,15,06,19.90
2005,04,28,15,07,19.90
2005,04,28,15,08,19.90
2005,04,28,15,09,19.90
2005,04,28,15,10,19.90
2005,04,28,15,11,19.80
2005,04,28,15,12,19.60
2005,04,28,15,13,19.40
2005,04,28,15,14,19.30
2005,04,28,15,15,19.10
2005,04,28,15,16,19.10
2005,04,28,15,17,19.00
2005,04,28,15,18,18.80
2005,04,28,15,19,18.70
2005,04,28,15,20,18.60
2005,04,28,15,21,18.50
2005,04,28,15,22,18.40
2005,04,28,15,23,18.30
2005,04,28,15,24,18.10
2005,04,28,15,25,17.90
2005,04,28,15,26,17.90
2005,04,28,15,27,17.90
2005,04,28,15,28,17.90
2005,04,28,15,29,17.90
2005,04,28,15,30,17.80
2005,04,28,15,31,17.70
2005,04,28,15,32,17.60
2005,04,28,15,33,17.50
2005,04,28,15,34,17.40
2005,04,28,15,35,17.40
2005,04,28,15,36,17.40
2005,04,28,15,37,17.50
2005,04,28,15,38,17.50
2005,04,28,15,39,17.60
2005,04,28,15,40,17.60
2005,04,28,15,41,17.70
2005,04,28,15,42,17.80
2005,04,28,15,43,17.90
2005,04,28,15,44,18.10
2005,04,28,15,45,18.20
2005,04,28,15,46,18.20
2005,04,28,15,47,18.30
2005,04,28,15,48,18.40
2005,04,28,15,49,18.40
2005,04,28,15,50,18.40
2005,04,28,15,51,18.50
2005,04,28,15,52,18.50
2005,04,28,15,53,18.60
2005,04,28,15,54,18.60
2005,04,28,15,55,18.50
2005,04,28,15,56,18.40
2005,04,28,15,57,18.20
2005,04,28,15,58,18.20
2005,04,28,15,59,18.20
2005,04,28,16,00,18.20
2005,04,28,16,01,18.20
2005,04,28,16,02,18.30
2005,04,28,16,03,18.30
2005,04,28,16,04,18.20
2005,04,28,16,05,18.20
2005,04,28,16,06,18.20
2005,04,28,16,07,18.30
2005,04,28,16,08,18.30
2005,04,28,16,09,18.30
2005,04,28,16,10,18.30
2005,04,28,16,11,18.30
2005,04,28,16,12,18.30
2005,04,28,16,13,18.40
2005,04,28,16,14,18.50
2005,04,28,16,15,18.60
2005,04,28,16,16,18.60
2005,04,28,16,17,18.60
2005,04,28,16,18,18.60
2005,04,28,16,19,18.60
2005,04,28,16,20,18.60
2005,04,28,16,21,18.50
2005,04,28,16,22,18.40
2005,04,28,16,23,18.40
2005,04,28,16,24,18.40
2005,04,28,16,25,18.40
2005,04,28,16,26,18.50
2005,04,28,16,27,18.50
2005,04,28,16,28,18.60
2005,04,28,16,29,18.70
2005,04,28,16,30,18.90
2005,04,28,16,31,18.90
2005,04,28,16,32,18.90
2005,04,28,16,33,18.90
2005,04,28,16,34,18.90
2005,04,28,16,35,18.90
2005,04,28,16,36,18.90
2005,04,28,16,37,18.90
2005,04,28,16,38,19.00
2005,04,28,16,39,19.10
2005,04,28,16,40,19.10
2005,04,28,16,41,19.10
2005,04,28,16,42,19.10
2005,04,28,16,43,19.10
2005,04,28,16,44,19.10
2005,04,28,16,45,19.10
2005,04,28,16,46,19.30
2005,04,28,16,47,19.30
2005,04,28,16,48,19.30
2005,04,28,16,49,19.30
2005,04,28,16,50,19.20
2005,04,28,16,51,19.10
2005,04,28,16,52,19.10
2005,04,28,16,53,19.10
2005,04,28,16,54,19.10
2005,04,28,16,55,19.10
2005,04,28,16,56,19.10
2005,04,28,16,57,19.10
2005,04,28,16,58,19.20
2005,04,28,16,59,19.30
2005,04,28,17,00,19.30
2005,04,28,17,01,19.30
2005,04,28,17,02,19.30
2005,04,28,17,03,19.40
2005,04,28,17,04,19.50
2005,04,28,17,05,19.50
2005,04,28,17,06,19.50
2005,04,28,17,07,19.50
2005,04,28,17,08,19.50
2005,04,28,17,09,19.50
2005,04,28,17,10,19.40
2005,04,28,17,11,19.30
2005,04,28,17,12,19.30
2005,04,28,17,13,19.30
2005,04,28,17,14,19.20
2005,04,28,17,15,19.10
2005,04,28,17,16,19.10
2005,04,28,17,17,19.10
2005,04,28,17,18,19.10
2005,04,28,17,19,19.10
2005,04,28,17,20,19.10
2005,04,28,17,21,19.10
2005,04,28,17,22,19.10
2005,04,28,17,23,19.00
2005,04,28,17,24,18.90
2005,04,28,17,25,18.90
2005,04,28,17,26,19.00
2005,04,28,17,27,19.10
2005,04,28,17,28,19.10
2005,04,28,17,29,19.20
2005,04,28,17,30,19.20
2005,04,28,17,31,19.20
2005,04,28,17,32,19.30